Location: USNO
(38.9242°N, 77.0663°W)
Time: 05:57:36
(UTC-04:00)

OTV 5 (USA 277) - Pass Details

Date: 09 October 2017
Orbit: 404 x 417 km, 43.0° (Epoch: 07 September)

Event Time Altitude Azimuth Distance (km) Brightness Sun altitude
Rises 18:56:42 0° 208° (SSW) 2,340 ? -4.4°
Reaches altitude 10° 18:59:16 10° 188° (S) 1,482 ? -4.9°
Maximum altitude 19:01:35 18° 144° (SE) 1,108 ? -5.4°
Drops below altitude 10° 19:03:55 10° 99° (E) 1,486 ? -5.8°
Enters shadow 19:04:34 - 93° (E) 1,680 ? -5.9°
